Location: Asheville, NC
(35.6000°N, 82.5500°W)
Time: 09:34:09
(UTC-04:00)

BEESAT 2 - Pass Details

Date: 11 March 2018
Orbit: 502 x 532 km, 64.9° (Epoch: 24 June)

Event Time Altitude Azimuth Distance (km) Brightness Sun altitude
Rises 06:48:03 0° 338° (NNW) 2,679 ? -12.7°
Reaches altitude 10° 06:50:23 10° 347° (NNW) 1,783 ? -12.2°
Maximum altitude 06:54:07 38° 56° (NE) 819 ? -11.5°
Drops below altitude 10° 06:57:49 10° 126° (SE) 1,760 ? -10.7°
Sets 07:00:06 0° 134° (SE) 2,640 ? -10.3°
